Weather Roundup
Issued by NWS

Home | Current Version | Previous Version | Graphics & Text | Print | Product List | Glossary Off
Versions: 1 2 3 4 5 6 7 8 9 10 11 12 13 14 15 16 17 18 19 20 21 22 23 24 25 26 27 28 29 30 31 32 33 34 35 36 37 38 39 40 41 42 43 44 45 46 47 48 49 50

549
NZUS93 KARX 211910
HRRWXR

CURRENT HOURLY OBSERVATIONS ACROSS
MUCH OF THE UPPER MISSISSIPPI VALLEY
NATIONAL WEATHER SERVICE LA CROSSE WI
200 PM CDT MON AUG 21 2017


...SOUTHEAST MINNESOTA...


CITY           SKY/WX    TMP DP  RH WIND       PRES   REMARKS
ROCHESTER      CLOUDY    73  68  84 S6        29.98S
ROCHESTER/MAYO FAIR      77  65  65 SE6       29.97F
WINONA         CLOUDY    77  68  73 CALM      29.97S
AUSTIN         CLOUDY    72  64  78 S3        29.98F
ALBERT LEA     LGT RAIN  75  63  64 S3        29.97F
DODGE CENTER   CLOUDY    73  66  78 S3        29.97F
PRESTON        CLOUDY    71  64  77 CALM      30.00R
OWATONNA       CLOUDY    73  66  78 S3        29.96F
FARIBAULT      CLOUDY    73  66  78 E3        29.96S
$$

...ELSEWHERE IN MINNESOTA...


CITY           SKY/WX    TMP DP  RH WIND       PRES   REMARKS
MINNEAPOLIS    CLOUDY    77  64  64 SE7       29.93F
INTNL FALLS    CLOUDY    66  58  75 CALM      29.94F
DULUTH         CLOUDY    64  58  80 NE6       29.94F
RED WING       MOSUNNY   75  66  73 CALM      29.94F
REDWOOD FALLS  CLOUDY    65  63  93 SE10      29.88F
MANKATO        TSTM      68  66  94 VRB5      30.00R FOG
WORTHINGTON    TSTM      64  64 100 E8        29.98R FOG
FAIRMONT       TSTM      68  66  94 SW6       30.01F
$$

...SOUTHWEST WISCONSIN...


CITY           SKY/WX    TMP DP  RH WIND       PRES   REMARKS
LA CROSSE      CLOUDY    79  65  62 SW5       29.97S
PRAIRIE DU CHI CLOUDY    75  64  67 S3        29.97F
BOSCOBEL       CLOUDY    79  66  64 S8        29.97F
LONE ROCK      CLOUDY    80  72  76 S7        29.97F
PLATTEVILLE    MOSUNNY   73  71  93 S9        30.01S
FORT MC COY    MOSUNNY   75  66  73 CALM      29.98S
CAMP DOUGLAS   PTSUNNY   77  70  78 S8        29.96F
MAUSTON-NEW LI CLOUDY    77  70  79 SE3       29.96F
VIROQUA        FAIR      73  66  81 CALM      29.98F
WIS DELLS      CLOUDY    76  68  76 S6        29.98F
$$

...ELSEWHERE IN WISCONSIN...


CITY           SKY/WX    TMP DP  RH WIND       PRES   REMARKS
MILWAUKEE      CLOUDY    78  70  76 E5        30.00F
MADISON        CLOUDY    75  70  84 S7        29.99F
GREEN BAY      MOSUNNY   77  71  82 SE6       29.95F
EAU CLAIRE     SUNNY     76  69  79 S6        29.95F
BLACK RVR FLS  FAIR      80  66  61 S6        29.96F
MEDFORD        CLOUDY    74  66  78 NE5       29.98F
WAUSAU         CLOUDY    77  68  73 S5        29.97S
WIS RAPIDS     CLOUDY    80  69  69 S7        29.99R
MARSHFIELD     CLOUDY    76  68  76 S6        29.97S
RICE LAKE      MOSUNNY   74  65  75 CALM      29.98F
$$

...NORTHEAST IOWA...


CITY           SKY/WX    TMP DP  RH WIND       PRES   REMARKS
WATERLOO       PTSUNNY   73  65  75 S10       29.96S
DUBUQUE        CLOUDY    71  67  87 S8        30.00F
DECORAH        CLOUDY    72  66  83 SE7       29.97F
MASON CITY     CLOUDY    68  66  93 S3        30.00F
CHARLES CITY   CLOUDY    70  68  94 CALM      29.98S
OELWEIN        CLOUDY    73  66  78 S9        29.99R
$$

...ELSEWHERE IN IOWA...


CITY           SKY/WX    TMP DP  RH WIND       PRES   REMARKS
DES MOINES     CLOUDY    75  68  78 S10       29.97F
IOWA CITY      CLOUDY    74  68  81 E6        29.97F
FORT DODGE     PTSUNNY   70  63  78 E10       29.95F
MARSHALLTOWN   CLOUDY    74  67  78 S8        29.94F
CEDAR RAPIDS   CLOUDY    71  67  87 VRB5      29.96F
$$

...NORTHERN ILLINOIS...


CITY           SKY/WX    TMP DP  RH WIND       PRES   REMARKS
CHICAGO-OHARE  CLOUDY    80  71  74 S6        30.03F
CHICAGO-MIDWAY CLOUDY    80  72  76 SW5       30.02F
MOLINE         CLOUDY    76  68  76 SE6       29.99F
ROCKFORD       CLOUDY    76  71  85 NW5       30.02F
PEORIA         CLOUDY    74  72  93 S16G24    30.03F
$$

NOTE: "FAIR" INDICATES FEW OR NO CLOUDS BELOW 12,000 FEET WITH NO
SIGNIFICANT WEATHER AND/OR OBSTRUCTIONS TO VISIBILITY. WIND
SPEEDS ARE IN MILES-PER-HOUR.




USA.gov is the U.S. government's official web portal to all federal, state and local government web resources and services.